Year,Month,Day,Hour,Minute,Value (Times are PST for temperature in C)
2014,01,21,00,00,3.00
2014,01,21,00,01,2.90
2014,01,21,00,02,2.90
2014,01,21,00,03,2.90
2014,01,21,00,04,2.90
2014,01,21,00,05,2.90
2014,01,21,00,06,2.90
2014,01,21,00,07,2.90
2014,01,21,00,08,2.90
2014,01,21,00,09,2.90
2014,01,21,00,10,2.90
2014,01,21,00,11,2.90
2014,01,21,00,12,2.90
2014,01,21,00,13,2.90
2014,01,21,00,14,2.90
2014,01,21,00,15,2.90
2014,01,21,00,16,2.90
2014,01,21,00,17,2.90
2014,01,21,00,18,2.90
2014,01,21,00,19,2.90
2014,01,21,00,20,2.90
2014,01,21,00,21,2.80
2014,01,21,00,22,2.80
2014,01,21,00,23,2.80
2014,01,21,00,24,2.80
2014,01,21,00,25,2.80
2014,01,21,00,26,2.80
2014,01,21,00,27,2.80
2014,01,21,00,28,2.80
2014,01,21,00,29,2.80
2014,01,21,00,30,2.80
2014,01,21,00,31,2.70
2014,01,21,00,32,2.70
2014,01,21,00,33,2.70
2014,01,21,00,34,2.70
2014,01,21,00,35,2.70
2014,01,21,00,36,2.70
2014,01,21,00,37,2.70
2014,01,21,00,38,2.70
2014,01,21,00,39,2.70
2014,01,21,00,40,2.70
2014,01,21,00,41,2.60
2014,01,21,00,42,2.60
2014,01,21,00,43,2.60
2014,01,21,00,44,2.60
2014,01,21,00,45,2.60
2014,01,21,00,46,2.60
2014,01,21,00,47,2.60
2014,01,21,00,48,2.60
2014,01,21,00,49,2.60
2014,01,21,00,50,2.60
2014,01,21,00,51,2.60
2014,01,21,00,52,2.60
2014,01,21,00,53,2.60
2014,01,21,00,54,2.60
2014,01,21,00,55,2.60
2014,01,21,00,56,2.60
2014,01,21,00,57,2.60
2014,01,21,00,58,2.60
2014,01,21,00,59,2.60
2014,01,21,01,00,2.60
2014,01,21,01,01,2.60
2014,01,21,01,02,2.60
2014,01,21,01,03,2.50
2014,01,21,01,04,2.50
2014,01,21,01,05,2.50
2014,01,21,01,06,2.50
2014,01,21,01,07,2.50
2014,01,21,01,08,2.50
2014,01,21,01,09,2.60
2014,01,21,01,10,2.60
2014,01,21,01,11,2.60
2014,01,21,01,12,2.60
2014,01,21,01,13,2.60
2014,01,21,01,14,2.60
2014,01,21,01,15,2.60
2014,01,21,01,16,2.60
2014,01,21,01,17,2.60
2014,01,21,01,18,2.60
2014,01,21,01,19,2.60
2014,01,21,01,20,2.60
2014,01,21,01,21,2.60
2014,01,21,01,22,2.60
2014,01,21,01,23,2.60
2014,01,21,01,24,2.60
2014,01,21,01,25,2.60
2014,01,21,01,26,2.60
2014,01,21,01,27,2.60
2014,01,21,01,28,2.60
2014,01,21,01,29,2.60
2014,01,21,01,30,2.60
2014,01,21,01,31,2.60
2014,01,21,01,32,2.60
2014,01,21,01,33,2.70
2014,01,21,01,34,2.60
2014,01,21,01,35,2.60
2014,01,21,01,36,2.70
2014,01,21,01,37,2.70
2014,01,21,01,38,2.70
2014,01,21,01,39,2.70
2014,01,21,01,40,2.70
2014,01,21,01,41,2.70
2014,01,21,01,42,2.70
2014,01,21,01,43,2.70
2014,01,21,01,44,2.80
2014,01,21,01,45,2.80
2014,01,21,01,46,2.80
2014,01,21,01,47,2.80
2014,01,21,01,48,2.80
2014,01,21,01,49,2.80
2014,01,21,01,50,2.80
2014,01,21,01,51,2.80
2014,01,21,01,52,2.80
2014,01,21,01,53,2.80
2014,01,21,01,54,2.80
2014,01,21,01,55,2.80
2014,01,21,01,56,2.80
2014,01,21,01,57,2.80
2014,01,21,01,58,2.80
2014,01,21,01,59,2.80
2014,01,21,02,00,2.80
2014,01,21,02,01,2.80
2014,01,21,02,02,2.80
2014,01,21,03,26,3.20
2014,01,21,03,27,3.20
2014,01,21,03,28,3.20
2014,01,21,03,29,3.20
2014,01,21,03,30,3.20
2014,01,21,03,31,3.20
2014,01,21,03,32,3.20
2014,01,21,03,33,3.20
2014,01,21,03,34,3.10
2014,01,21,03,35,3.10
2014,01,21,03,36,3.10
2014,01,21,03,37,3.10
2014,01,21,03,38,3.10
2014,01,21,03,39,3.10
2014,01,21,03,40,3.10
2014,01,21,03,41,3.10
2014,01,21,03,42,3.00
2014,01,21,03,43,3.00
2014,01,21,03,44,3.00
2014,01,21,03,45,2.90
2014,01,21,03,46,2.90
2014,01,21,03,47,2.90
2014,01,21,03,48,2.90
2014,01,21,03,49,2.90
2014,01,21,03,50,2.90
2014,01,21,03,51,2.90
2014,01,21,03,52,2.90
2014,01,21,03,53,2.80
2014,01,21,03,54,2.80
2014,01,21,03,55,2.80
2014,01,21,03,56,2.80
2014,01,21,03,57,2.80
2014,01,21,03,58,2.80
2014,01,21,03,59,2.80
2014,01,21,04,00,2.80
2014,01,21,04,01,2.80
2014,01,21,04,02,2.80
2014,01,21,04,03,2.70
2014,01,21,04,04,2.70
2014,01,21,04,05,2.70
2014,01,21,04,06,2.70
2014,01,21,04,07,2.70
2014,01,21,04,08,2.70
2014,01,21,04,09,2.70
2014,01,21,04,10,2.70
2014,01,21,04,11,2.70
2014,01,21,04,12,2.70
2014,01,21,04,13,2.70
2014,01,21,04,14,2.70
2014,01,21,04,15,2.60
2014,01,21,04,16,2.60
2014,01,21,04,17,2.60
2014,01,21,04,18,2.60
2014,01,21,04,19,2.60
2014,01,21,04,20,2.60
2014,01,21,04,21,2.60
2014,01,21,04,22,2.60
2014,01,21,04,23,2.60
2014,01,21,04,24,2.60
2014,01,21,04,25,2.60
2014,01,21,04,26,2.60
2014,01,21,04,27,2.60
2014,01,21,04,28,2.60
2014,01,21,04,29,2.60
2014,01,21,04,30,2.50
2014,01,21,04,31,2.50
2014,01,21,04,32,2.50
2014,01,21,04,33,2.50
2014,01,21,04,34,2.50
2014,01,21,04,35,2.50
2014,01,21,04,36,2.50
2014,01,21,04,37,2.50
2014,01,21,04,38,2.50
2014,01,21,04,39,2.40
2014,01,21,04,40,2.40
2014,01,21,04,41,2.40
2014,01,21,04,42,2.40
2014,01,21,04,43,2.40
2014,01,21,04,44,2.40
2014,01,21,04,45,2.40
2014,01,21,04,46,2.40
2014,01,21,04,47,2.40
2014,01,21,04,48,2.40
2014,01,21,04,49,2.40
2014,01,21,04,50,2.40
2014,01,21,04,51,2.40
2014,01,21,04,52,2.50
2014,01,21,04,53,2.40
2014,01,21,04,54,2.50
2014,01,21,04,55,2.50
2014,01,21,04,56,2.50
2014,01,21,04,57,2.50
2014,01,21,04,58,2.50
2014,01,21,04,59,2.50
2014,01,21,05,00,2.50
2014,01,21,05,01,2.50
2014,01,21,05,02,2.50
2014,01,21,05,03,2.50
2014,01,21,05,04,2.50
2014,01,21,05,05,2.50
2014,01,21,05,06,2.50
2014,01,21,05,07,2.50
2014,01,21,05,08,2.50
2014,01,21,05,09,2.50
2014,01,21,05,10,2.50
2014,01,21,05,11,2.50
2014,01,21,05,12,2.50
2014,01,21,05,13,2.50
2014,01,21,05,14,2.50
2014,01,21,05,15,2.60
2014,01,21,05,16,2.60
2014,01,21,05,17,2.60
2014,01,21,05,18,2.60
2014,01,21,05,19,2.60
2014,01,21,05,20,2.60
2014,01,21,05,21,2.60
2014,01,21,05,22,2.60
2014,01,21,05,23,2.60
2014,01,21,05,24,2.60
2014,01,21,05,25,2.60
2014,01,21,05,26,2.60
2014,01,21,05,27,2.60
2014,01,21,05,28,2.60
2014,01,21,05,29,2.60
2014,01,21,05,30,2.60
2014,01,21,05,31,2.60
2014,01,21,05,32,2.60
2014,01,21,05,33,2.60
2014,01,21,05,34,2.70
2014,01,21,05,35,2.70
2014,01,21,05,36,2.70
2014,01,21,05,37,2.70
2014,01,21,05,38,2.70
2014,01,21,05,39,2.70
2014,01,21,05,40,2.70
2014,01,21,05,41,2.70
2014,01,21,05,42,2.70
2014,01,21,05,43,2.80
2014,01,21,05,44,2.80
2014,01,21,05,45,2.80
2014,01,21,05,46,2.80
2014,01,21,05,47,2.80
2014,01,21,05,48,2.80
2014,01,21,05,49,2.80
2014,01,21,05,50,2.80
2014,01,21,05,51,2.80
2014,01,21,05,52,2.80
2014,01,21,05,53,2.80
2014,01,21,05,54,2.80
2014,01,21,05,55,2.80
2014,01,21,05,56,2.80
2014,01,21,05,57,2.80
2014,01,21,05,58,2.80
2014,01,21,05,59,2.80
2014,01,21,06,00,2.90
2014,01,21,06,01,2.80
2014,01,21,06,02,2.90
2014,01,21,06,03,2.90
2014,01,21,06,04,2.90
2014,01,21,06,05,2.90
2014,01,21,06,06,2.90
2014,01,21,06,07,2.90
2014,01,21,06,08,2.90
2014,01,21,06,09,2.90
2014,01,21,06,10,2.90
2014,01,21,06,11,2.90
2014,01,21,06,12,2.90
2014,01,21,06,13,3.00
2014,01,21,06,14,3.00
2014,01,21,06,15,3.00
2014,01,21,06,16,3.00
2014,01,21,06,17,3.00
2014,01,21,06,18,3.00
2014,01,21,06,19,3.00
2014,01,21,06,20,3.10
2014,01,21,06,21,3.10
2014,01,21,06,22,3.10
2014,01,21,06,23,3.10
2014,01,21,06,24,3.10
2014,01,21,06,25,3.10
2014,01,21,06,26,3.10
2014,01,21,06,27,3.10
2014,01,21,06,28,3.10
2014,01,21,06,29,3.10
2014,01,21,06,30,3.10
2014,01,21,06,31,3.10
2014,01,21,06,32,3.10
2014,01,21,06,33,3.10
2014,01,21,06,34,3.10
2014,01,21,06,35,3.10
2014,01,21,06,36,3.10
2014,01,21,06,37,3.10
2014,01,21,06,38,3.10
2014,01,21,06,39,3.10
2014,01,21,06,40,3.10
2014,01,21,06,41,3.10
2014,01,21,06,42,3.10
2014,01,21,06,43,3.10
2014,01,21,06,44,3.10
2014,01,21,06,45,3.10
2014,01,21,06,46,3.10
2014,01,21,06,47,3.10
2014,01,21,06,48,3.10
2014,01,21,06,49,3.10
2014,01,21,06,50,3.10
2014,01,21,06,51,3.10
2014,01,21,06,52,3.10
2014,01,21,06,53,3.10
2014,01,21,06,54,3.10
2014,01,21,06,55,3.10
2014,01,21,06,56,3.10
2014,01,21,06,57,3.10
2014,01,21,06,58,3.10
2014,01,21,06,59,3.10
2014,01,21,07,00,3.10
2014,01,21,07,01,3.10
2014,01,21,07,02,3.10
2014,01,21,07,03,3.10
2014,01,21,07,04,3.10
2014,01,21,07,05,3.10
2014,01,21,07,06,3.10
2014,01,21,07,07,3.10
2014,01,21,07,08,3.10
2014,01,21,07,09,3.10
2014,01,21,07,10,3.00
2014,01,21,07,11,3.10
2014,01,21,07,12,3.10
2014,01,21,07,13,3.10
2014,01,21,07,14,3.10
2014,01,21,07,15,3.10
2014,01,21,07,16,3.10
2014,01,21,07,17,3.00
2014,01,21,07,18,3.00
2014,01,21,07,19,3.00
2014,01,21,07,20,3.00
2014,01,21,07,21,3.00
2014,01,21,07,22,3.00
2014,01,21,07,23,3.00
2014,01,21,07,24,3.00
2014,01,21,07,25,3.00
2014,01,21,07,26,3.00
2014,01,21,07,27,3.00
2014,01,21,07,28,3.00
2014,01,21,07,29,3.00
2014,01,21,07,30,3.00
2014,01,21,07,31,3.00
2014,01,21,07,32,3.00
2014,01,21,07,33,2.90
2014,01,21,07,34,3.00
2014,01,21,07,35,2.90
2014,01,21,07,36,2.90
2014,01,21,07,37,2.90
2014,01,21,07,38,2.90
2014,01,21,07,39,2.90
2014,01,21,07,40,2.90
2014,01,21,07,41,2.90
2014,01,21,07,42,2.90
2014,01,21,07,43,3.00
2014,01,21,07,44,3.00
2014,01,21,07,45,3.00
2014,01,21,07,46,3.00
2014,01,21,07,47,3.00
2014,01,21,07,48,3.00
2014,01,21,07,49,3.00
2014,01,21,07,50,3.00
2014,01,21,07,51,3.00
2014,01,21,07,52,3.00
2014,01,21,07,53,3.10
2014,01,21,07,54,3.10
2014,01,21,07,55,3.10
2014,01,21,07,56,3.00
2014,01,21,07,57,3.00
2014,01,21,07,58,3.00
2014,01,21,07,59,3.00
2014,01,21,08,00,3.00
2014,01,21,08,01,3.00
2014,01,21,08,02,3.00
2014,01,21,08,03,3.10
2014,01,21,08,04,3.10
2014,01,21,08,05,3.10
2014,01,21,08,06,3.10
2014,01,21,08,07,3.10
2014,01,21,08,08,3.10
2014,01,21,08,09,3.10
2014,01,21,08,10,3.10
2014,01,21,08,11,3.10
2014,01,21,08,12,3.10
2014,01,21,08,13,3.10
2014,01,21,08,14,3.10
2014,01,21,08,15,3.10
2014,01,21,08,16,3.10
2014,01,21,08,17,3.10
2014,01,21,08,18,3.10
2014,01,21,08,19,3.10
2014,01,21,08,20,3.10
2014,01,21,08,21,3.10
2014,01,21,08,22,3.10
2014,01,21,08,23,3.10
2014,01,21,08,24,3.10
2014,01,21,08,25,3.10
2014,01,21,08,26,3.10
2014,01,21,08,27,3.10
2014,01,21,08,28,3.10
2014,01,21,08,29,3.10
2014,01,21,08,30,3.10
2014,01,21,08,31,3.10
2014,01,21,08,32,3.20
2014,01,21,08,33,3.20
2014,01,21,08,34,3.20
2014,01,21,08,35,3.20
2014,01,21,08,36,3.20
2014,01,21,08,37,3.20
2014,01,21,08,38,3.20
2014,01,21,08,39,3.20
2014,01,21,08,40,3.20
2014,01,21,08,41,3.20
2014,01,21,08,42,3.20
2014,01,21,08,43,3.20
2014,01,21,08,44,3.30
2014,01,21,08,45,3.30
2014,01,21,08,46,3.30
2014,01,21,08,47,3.30
2014,01,21,08,48,3.30
2014,01,21,08,51,3.30
2014,01,21,08,52,3.30
2014,01,21,08,53,3.30
2014,01,21,08,54,3.40
2014,01,21,08,55,3.40
2014,01,21,08,56,3.40
2014,01,21,08,57,3.40
2014,01,21,08,58,3.40
2014,01,21,08,59,3.40
2014,01,21,09,00,3.40
2014,01,21,09,01,3.40
2014,01,21,09,02,3.40
2014,01,21,09,03,3.40
2014,01,21,09,04,3.40
2014,01,21,09,05,3.50
2014,01,21,09,06,3.50
2014,01,21,09,07,3.50
2014,01,21,09,08,3.50
2014,01,21,09,09,3.50
2014,01,21,09,10,3.50
2014,01,21,09,11,3.60
2014,01,21,09,12,3.60
2014,01,21,09,13,3.60
2014,01,21,09,14,3.60
2014,01,21,09,15,3.60
2014,01,21,09,16,3.60
2014,01,21,09,17,3.70
2014,01,21,09,18,3.70
2014,01,21,09,19,3.70
2014,01,21,09,20,3.70
2014,01,21,09,21,3.70
2014,01,21,09,22,3.70
2014,01,21,09,23,3.80
2014,01,21,09,24,3.80
2014,01,21,09,25,3.80
2014,01,21,09,26,3.80
2014,01,21,09,27,3.80
2014,01,21,09,28,3.80
2014,01,21,09,29,3.80
2014,01,21,09,30,3.80
2014,01,21,09,31,3.80
2014,01,21,09,32,3.90
2014,01,21,09,33,3.90
2014,01,21,09,34,3.90
2014,01,21,09,35,3.90
2014,01,21,09,36,3.90
2014,01,21,09,37,3.90
2014,01,21,09,38,3.90
2014,01,21,09,39,3.90
2014,01,21,09,40,3.90
2014,01,21,09,41,3.80
2014,01,21,09,42,3.80
2014,01,21,09,43,3.80
2014,01,21,09,44,3.80
2014,01,21,09,45,3.80
2014,01,21,09,46,3.80
2014,01,21,09,47,3.80
2014,01,21,09,48,3.80
2014,01,21,09,49,3.80
2014,01,21,09,50,3.80
2014,01,21,09,51,3.80
2014,01,21,09,52,3.80
2014,01,21,09,53,3.80
2014,01,21,09,54,3.80
2014,01,21,09,55,3.90
2014,01,21,09,56,3.90
2014,01,21,09,57,3.90
2014,01,21,09,58,3.90
2014,01,21,09,59,3.80
2014,01,21,10,00,3.80
2014,01,21,10,01,3.80
2014,01,21,10,02,3.80
2014,01,21,10,03,3.80
2014,01,21,10,04,3.80
2014,01,21,10,05,3.80
2014,01,21,10,06,3.70
2014,01,21,10,07,3.70
2014,01,21,10,08,3.70
2014,01,21,10,09,3.80
2014,01,21,10,10,3.80
2014,01,21,10,11,3.70
2014,01,21,10,12,3.80
2014,01,21,10,13,3.80
2014,01,21,10,14,3.80
2014,01,21,10,15,3.80
2014,01,21,10,16,3.80
2014,01,21,10,17,3.80
2014,01,21,10,18,3.80
2014,01,21,10,19,3.80
2014,01,21,10,20,3.80
2014,01,21,10,21,3.80
2014,01,21,10,22,3.80
2014,01,21,10,23,3.80
2014,01,21,10,24,3.80
2014,01,21,10,25,3.80
2014,01,21,10,26,3.80
2014,01,21,10,27,3.90
2014,01,21,10,28,3.90
2014,01,21,10,29,3.90
2014,01,21,10,30,3.90
2014,01,21,10,31,4.00
2014,01,21,10,32,4.00
2014,01,21,10,33,4.00
2014,01,21,10,34,4.00
2014,01,21,10,35,4.00
2014,01,21,10,36,4.00
2014,01,21,10,37,4.00
2014,01,21,10,38,4.00
2014,01,21,10,39,4.10
2014,01,21,10,40,4.10
2014,01,21,10,41,4.10
2014,01,21,10,42,4.10
2014,01,21,10,43,4.10
2014,01,21,10,44,4.10
2014,01,21,10,45,4.10
2014,01,21,10,46,4.00
2014,01,21,10,47,4.00
2014,01,21,10,48,4.00
2014,01,21,10,49,4.00
2014,01,21,10,50,4.00
2014,01,21,10,51,4.00
2014,01,21,10,52,4.00
2014,01,21,10,53,3.90
2014,01,21,10,54,3.90
2014,01,21,10,55,3.90
2014,01,21,10,56,3.90
2014,01,21,10,57,3.90
2014,01,21,10,58,3.90
2014,01,21,10,59,3.90
2014,01,21,11,00,3.90
2014,01,21,11,01,3.90
2014,01,21,11,02,3.90
2014,01,21,11,03,3.90
2014,01,21,11,04,3.90
2014,01,21,11,05,3.90
2014,01,21,11,06,3.90
2014,01,21,11,07,3.80
2014,01,21,11,08,3.80
2014,01,21,11,09,3.80
2014,01,21,11,10,3.80
2014,01,21,11,11,3.80
2014,01,21,11,12,3.80
2014,01,21,11,13,3.80
2014,01,21,11,14,3.80
2014,01,21,11,15,3.80
2014,01,21,11,16,3.80
2014,01,21,11,17,3.80
2014,01,21,11,18,3.80
2014,01,21,11,19,3.80
2014,01,21,11,20,3.80
2014,01,21,11,21,3.80
2014,01,21,11,22,3.80
2014,01,21,11,23,3.90
2014,01,21,11,24,3.90
2014,01,21,11,25,3.90
2014,01,21,11,26,3.90
2014,01,21,11,27,3.90
2014,01,21,11,28,3.90
2014,01,21,11,29,3.90
2014,01,21,11,30,3.90
2014,01,21,11,31,4.00
2014,01,21,11,32,4.00
2014,01,21,11,33,4.00
2014,01,21,11,34,4.00
2014,01,21,11,35,4.10
2014,01,21,11,36,4.10
2014,01,21,11,37,4.10
2014,01,21,11,38,4.10
2014,01,21,11,39,4.10
2014,01,21,11,40,4.10
2014,01,21,11,41,4.20
2014,01,21,11,42,4.20
2014,01,21,11,43,4.20
2014,01,21,11,44,4.20
2014,01,21,11,45,4.20
2014,01,21,11,46,4.20
2014,01,21,11,47,4.20
2014,01,21,11,48,4.20
2014,01,21,11,49,4.20
2014,01,21,11,50,4.20
2014,01,21,11,51,4.30
2014,01,21,11,52,4.30
2014,01,21,11,53,4.30
2014,01,21,11,54,4.30
2014,01,21,11,55,4.30
2014,01,21,11,56,4.30
2014,01,21,11,57,4.30
2014,01,21,11,58,4.30
2014,01,21,11,59,4.30
2014,01,21,12,00,4.30
2014,01,21,12,01,4.40
2014,01,21,12,02,4.40
2014,01,21,12,03,4.40
2014,01,21,12,04,4.40
2014,01,21,12,05,4.40
2014,01,21,12,06,4.40
2014,01,21,12,07,4.40
2014,01,21,12,08,4.40
2014,01,21,12,09,4.50
2014,01,21,12,10,4.50
2014,01,21,12,11,4.50
2014,01,21,12,12,4.50
2014,01,21,12,13,4.50
2014,01,21,12,14,4.50
2014,01,21,12,15,4.50
2014,01,21,12,16,4.50
2014,01,21,12,17,4.50
2014,01,21,12,18,4.50
2014,01,21,12,19,4.50
2014,01,21,12,20,4.50
2014,01,21,12,21,4.50
2014,01,21,12,22,4.50
2014,01,21,12,23,4.50
2014,01,21,12,24,4.50
2014,01,21,12,25,4.50
2014,01,21,12,26,4.50
2014,01,21,12,27,4.60
2014,01,21,12,28,4.60
2014,01,21,12,29,4.60
2014,01,21,12,30,4.60
2014,01,21,12,31,4.60
2014,01,21,12,32,4.60
2014,01,21,12,33,4.60
2014,01,21,12,34,4.70
2014,01,21,12,35,4.70
2014,01,21,12,36,4.70
2014,01,21,12,37,4.80
2014,01,21,12,38,4.80
2014,01,21,12,39,4.80
2014,01,21,12,40,4.90
2014,01,21,12,41,4.90
2014,01,21,12,42,5.00
2014,01,21,12,43,5.10
2014,01,21,12,44,5.10
2014,01,21,12,45,5.20
2014,01,21,12,46,5.20
2014,01,21,12,47,5.30
2014,01,21,12,48,5.30
2014,01,21,12,49,5.30
2014,01,21,12,50,5.30
2014,01,21,12,51,5.30
2014,01,21,12,52,5.40
2014,01,21,12,53,5.40
2014,01,21,12,54,5.40
2014,01,21,12,55,5.40
2014,01,21,12,56,5.40
2014,01,21,12,57,5.40
2014,01,21,12,58,5.40
2014,01,21,12,59,5.40
2014,01,21,13,00,5.50
2014,01,21,13,01,5.50
2014,01,21,13,02,5.50
2014,01,21,13,03,5.50
2014,01,21,13,04,5.50
2014,01,21,13,05,5.50
2014,01,21,13,06,5.50
2014,01,21,13,07,5.50
2014,01,21,13,08,5.50
2014,01,21,13,09,5.60
2014,01,21,13,10,5.60
2014,01,21,13,11,5.60
2014,01,21,13,12,5.60
2014,01,21,13,13,5.60
2014,01,21,13,14,5.60
2014,01,21,13,15,5.60
2014,01,21,13,16,5.60
2014,01,21,13,17,5.60
2014,01,21,13,18,5.60
2014,01,21,13,19,5.60
2014,01,21,13,20,5.60
2014,01,21,13,21,5.60
2014,01,21,13,22,5.60
2014,01,21,13,23,5.60
2014,01,21,13,24,5.60
2014,01,21,13,25,5.60
2014,01,21,13,26,5.60
2014,01,21,13,27,5.70
2014,01,21,13,28,5.70
2014,01,21,13,29,5.70
2014,01,21,13,30,5.70
2014,01,21,13,31,5.80
2014,01,21,13,32,5.80
2014,01,21,13,33,5.80
2014,01,21,13,34,5.80
2014,01,21,13,35,5.80
2014,01,21,13,36,5.80
2014,01,21,13,37,5.90
2014,01,21,13,38,5.90
2014,01,21,13,39,5.90
2014,01,21,13,40,5.90
2014,01,21,13,41,5.90
2014,01,21,13,42,6.00
2014,01,21,13,43,6.00
2014,01,21,13,44,6.00
2014,01,21,13,45,6.00
2014,01,21,13,46,6.00
2014,01,21,13,47,6.00
2014,01,21,13,48,6.00
2014,01,21,13,49,6.00
2014,01,21,13,50,6.00
2014,01,21,13,51,6.00
2014,01,21,13,52,6.00
2014,01,21,13,53,6.00
2014,01,21,13,54,6.10
2014,01,21,13,55,6.10
2014,01,21,13,56,6.10
2014,01,21,13,57,6.10
2014,01,21,13,58,6.20
2014,01,21,13,59,6.20
2014,01,21,14,00,6.20
2014,01,21,14,01,6.30
2014,01,21,14,02,6.30
2014,01,21,14,03,6.30
2014,01,21,14,04,6.30
2014,01,21,14,05,6.40
2014,01,21,14,06,6.40
2014,01,21,14,07,6.40
2014,01,21,14,08,6.50
2014,01,21,14,09,6.50
2014,01,21,14,10,6.50
2014,01,21,14,11,6.50
2014,01,21,14,12,6.60
2014,01,21,14,13,6.60
2014,01,21,14,14,6.60
2014,01,21,14,15,6.60
2014,01,21,14,16,6.60
2014,01,21,14,17,6.60
2014,01,21,14,18,6.60
2014,01,21,14,19,6.60
2014,01,21,14,20,6.60
2014,01,21,14,21,6.60
2014,01,21,14,22,6.60
2014,01,21,14,23,6.60
2014,01,21,14,24,6.60
2014,01,21,14,25,6.60
2014,01,21,14,26,6.60
2014,01,21,14,27,6.60
2014,01,21,14,28,6.60
2014,01,21,14,29,6.60
2014,01,21,14,30,6.60
2014,01,21,14,31,6.60
2014,01,21,14,32,6.60
2014,01,21,14,33,6.60
2014,01,21,14,34,6.60
2014,01,21,14,35,6.60
2014,01,21,14,36,6.60
2014,01,21,14,37,6.60
2014,01,21,14,38,6.60
2014,01,21,14,39,6.60
2014,01,21,14,40,6.60
2014,01,21,14,41,6.60
2014,01,21,14,42,6.60
2014,01,21,14,43,6.60
2014,01,21,14,44,6.60
2014,01,21,14,45,6.60
2014,01,21,14,46,6.50
2014,01,21,14,47,6.50
2014,01,21,14,48,6.50
2014,01,21,14,49,6.50
2014,01,21,14,50,6.50
2014,01,21,14,51,6.50
2014,01,21,14,52,6.50
2014,01,21,14,53,6.50
2014,01,21,14,54,6.50
2014,01,21,14,55,6.40
2014,01,21,14,56,6.40
2014,01,21,14,57,6.40
2014,01,21,14,58,6.40
2014,01,21,14,59,6.40
2014,01,21,15,00,6.40
2014,01,21,15,01,6.40
2014,01,21,15,02,6.40
2014,01,21,15,03,6.30
2014,01,21,15,04,6.30
2014,01,21,15,05,6.30
2014,01,21,15,06,6.30
2014,01,21,15,07,6.30
2014,01,21,15,08,6.30
2014,01,21,15,09,6.30
2014,01,21,15,10,6.20
2014,01,21,15,11,6.20
2014,01,21,15,12,6.20
2014,01,21,15,13,6.20
2014,01,21,15,14,6.20
2014,01,21,15,15,6.20
2014,01,21,15,16,6.20
2014,01,21,15,17,6.20
2014,01,21,15,18,6.10
2014,01,21,15,19,6.10
2014,01,21,15,20,6.10
2014,01,21,15,21,6.10
2014,01,21,15,22,6.10
2014,01,21,15,23,6.10
2014,01,21,15,24,6.10
2014,01,21,15,25,6.10
2014,01,21,15,26,6.10
2014,01,21,15,27,6.10
2014,01,21,15,28,6.10
2014,01,21,15,29,6.10
2014,01,21,15,30,6.20
2014,01,21,15,31,6.20
2014,01,21,15,32,6.20
2014,01,21,15,33,6.20
2014,01,21,15,34,6.20
2014,01,21,15,35,6.20
2014,01,21,15,36,6.20
2014,01,21,15,37,6.20
2014,01,21,15,38,6.20
2014,01,21,15,39,6.20
2014,01,21,15,40,6.20
2014,01,21,15,41,6.20
2014,01,21,15,42,6.20
2014,01,21,15,43,6.20
2014,01,21,15,44,6.10
2014,01,21,15,45,6.10
2014,01,21,15,46,6.10
2014,01,21,15,47,6.10
2014,01,21,15,48,6.10
2014,01,21,15,49,6.10
2014,01,21,15,50,6.10
2014,01,21,15,51,6.10
2014,01,21,15,52,6.10
2014,01,21,15,53,6.10
2014,01,21,15,54,6.10
2014,01,21,15,55,6.10
2014,01,21,15,56,6.10
2014,01,21,15,57,6.10
2014,01,21,15,58,6.10
2014,01,21,15,59,6.10
2014,01,21,16,00,6.10
2014,01,21,16,01,6.10
2014,01,21,16,02,6.10
2014,01,21,16,03,6.10
2014,01,21,16,04,6.10
2014,01,21,16,05,6.10
2014,01,21,16,06,6.10
2014,01,21,16,07,6.10
2014,01,21,16,08,6.10
2014,01,21,16,09,6.10
2014,01,21,16,10,6.10
2014,01,21,16,11,6.10
2014,01,21,16,12,6.10
2014,01,21,16,13,6.10
2014,01,21,16,14,6.10
2014,01,21,16,15,6.10
2014,01,21,16,16,6.00
2014,01,21,16,17,6.00
2014,01,21,16,18,6.00
2014,01,21,16,19,6.00
2014,01,21,16,20,6.00
2014,01,21,16,21,6.00
2014,01,21,16,22,6.00
2014,01,21,16,23,6.00
2014,01,21,16,24,6.00
2014,01,21,16,25,5.90
2014,01,21,16,26,5.90
2014,01,21,16,27,5.90
2014,01,21,16,28,5.90
2014,01,21,16,29,5.90
2014,01,21,16,30,5.90
2014,01,21,16,31,5.90
2014,01,21,16,32,5.90
2014,01,21,16,33,5.90
2014,01,21,16,34,5.90
2014,01,21,16,35,5.90
2014,01,21,16,36,5.90
2014,01,21,16,37,5.90
2014,01,21,16,38,5.90
2014,01,21,16,39,5.90
2014,01,21,16,40,5.90
2014,01,21,16,41,5.80
2014,01,21,16,42,5.80
2014,01,21,16,43,5.80
2014,01,21,16,44,5.80
2014,01,21,16,45,5.80
2014,01,21,16,46,5.80
2014,01,21,16,47,5.80
2014,01,21,16,48,5.80
2014,01,21,16,49,5.70
2014,01,21,16,50,5.70
2014,01,21,16,51,5.70
2014,01,21,16,52,5.70
2014,01,21,16,53,5.70
2014,01,21,16,54,5.70
2014,01,21,16,55,5.60
2014,01,21,16,56,5.60
2014,01,21,16,57,5.60
2014,01,21,16,58,5.60
2014,01,21,16,59,5.60
2014,01,21,17,00,5.60
2014,01,21,17,01,5.60
2014,01,21,17,02,5.60
2014,01,21,17,03,5.60
2014,01,21,17,04,5.60
2014,01,21,17,05,5.60
2014,01,21,17,06,5.60
2014,01,21,17,07,5.60
2014,01,21,17,08,5.50
2014,01,21,17,09,5.50
2014,01,21,17,10,5.50
2014,01,21,17,11,5.50
2014,01,21,17,12,5.50
2014,01,21,17,13,5.50
2014,01,21,17,14,5.50
2014,01,21,17,15,5.40
2014,01,21,17,16,5.40
2014,01,21,17,17,5.40
2014,01,21,17,18,5.50
2014,01,21,17,19,5.50
2014,01,21,17,20,5.50
2014,01,21,17,21,5.40
2014,01,21,17,22,5.40
2014,01,21,17,23,5.40
2014,01,21,17,24,5.40
2014,01,21,17,25,5.40
2014,01,21,17,26,5.40
2014,01,21,17,27,5.40
2014,01,21,17,28,5.30
2014,01,21,17,29,5.30
2014,01,21,17,30,5.30
2014,01,21,17,31,5.30
2014,01,21,17,32,5.30
2014,01,21,17,33,5.30
2014,01,21,17,34,5.30
2014,01,21,17,35,5.20
2014,01,21,17,36,5.20
2014,01,21,17,37,5.20
2014,01,21,17,38,5.20
2014,01,21,17,39,5.20
2014,01,21,17,40,5.20
2014,01,21,17,41,5.20
2014,01,21,17,42,5.10
2014,01,21,17,43,5.10
2014,01,21,17,44,5.10
2014,01,21,17,45,5.10
2014,01,21,17,46,5.10
2014,01,21,17,47,5.10
2014,01,21,17,48,5.10
2014,01,21,17,49,5.10
2014,01,21,17,50,5.10
2014,01,21,17,51,5.10
2014,01,21,17,52,5.10
2014,01,21,17,53,5.10
2014,01,21,17,54,5.10
2014,01,21,17,55,5.10
2014,01,21,17,56,5.10
2014,01,21,17,57,5.10
2014,01,21,17,58,5.00
2014,01,21,17,59,5.00
2014,01,21,18,00,5.00
2014,01,21,18,01,5.00
2014,01,21,18,02,5.00
2014,01,21,18,03,5.00
2014,01,21,18,04,5.00
2014,01,21,18,05,4.90
2014,01,21,18,06,4.90
2014,01,21,18,07,4.90
2014,01,21,18,08,4.90
2014,01,21,18,09,4.90
2014,01,21,18,10,4.90
2014,01,21,18,11,4.90
2014,01,21,18,12,4.90
2014,01,21,18,13,4.90
2014,01,21,18,14,4.90
2014,01,21,18,15,4.90
2014,01,21,18,16,4.90
2014,01,21,18,17,4.90
2014,01,21,18,18,4.90
2014,01,21,18,19,4.80
2014,01,21,18,20,4.80
2014,01,21,18,21,4.80
2014,01,21,18,22,4.80
2014,01,21,18,23,4.80
2014,01,21,18,24,4.80
2014,01,21,18,25,4.80
2014,01,21,18,26,4.80
2014,01,21,18,27,4.80
2014,01,21,18,28,4.80
2014,01,21,18,29,4.80
2014,01,21,18,30,4.80
2014,01,21,18,31,4.80
2014,01,21,18,32,4.90
2014,01,21,18,33,4.90
2014,01,21,18,34,4.90
2014,01,21,18,35,4.90
2014,01,21,18,36,4.90
2014,01,21,18,37,4.90
2014,01,21,18,38,4.90
2014,01,21,18,39,4.90
2014,01,21,18,40,4.90
2014,01,21,18,41,4.90
2014,01,21,18,42,4.90
2014,01,21,18,43,4.90
2014,01,21,18,44,4.90
2014,01,21,18,45,4.90
2014,01,21,18,46,4.90
2014,01,21,18,47,4.90
2014,01,21,18,48,4.90
2014,01,21,18,49,4.90
2014,01,21,18,50,4.90
2014,01,21,18,51,4.90
2014,01,21,18,52,4.80
2014,01,21,18,53,4.80
2014,01,21,18,54,4.80
2014,01,21,18,55,4.80
2014,01,21,18,56,4.80
2014,01,21,18,57,4.80
2014,01,21,18,58,4.80
2014,01,21,18,59,4.80
2014,01,21,19,00,4.80
2014,01,21,19,01,4.80
2014,01,21,19,02,4.80
2014,01,21,19,03,4.80
2014,01,21,19,04,4.80
2014,01,21,19,05,4.80
2014,01,21,19,06,4.80
2014,01,21,19,07,4.80
2014,01,21,19,08,4.80
2014,01,21,19,09,4.80
2014,01,21,19,10,4.80
2014,01,21,19,11,4.80
2014,01,21,19,12,4.80
2014,01,21,19,13,4.80
2014,01,21,19,14,4.80
2014,01,21,19,15,4.80
2014,01,21,19,16,4.80
2014,01,21,19,17,4.80
2014,01,21,19,18,4.80
2014,01,21,19,19,4.80
2014,01,21,19,20,4.80
2014,01,21,19,21,4.80
2014,01,21,19,22,4.80
2014,01,21,19,23,4.80
2014,01,21,19,24,4.80
2014,01,21,19,25,4.80
2014,01,21,19,26,4.80
2014,01,21,19,27,4.80
2014,01,21,19,28,4.80
2014,01,21,19,29,4.80
2014,01,21,19,30,4.80
2014,01,21,19,31,4.80